Location: High Point State Park
(41.2941°N, 74.6906°W)
Time: 19:08:27
(UTC-04:00)

HST - Visible Passes

Search period start: 24 October 2014 00:00
Search period end: 02 November 2014 23:00
Orbit: 546 x 550 km, 28.5° (Epoch: 23 October)

Date Brightness Start Highest point End Pass type
(mag) Time Alt. Az. Time Alt. Az. Time Alt. Az.
28 Oct 3.3 18:50:09 10° S 18:51:24 11° SSE 18:52:40 10° SSE visible
28 Oct 3.6 20:29:49 10° SSW 20:30:11 11° SSW 20:30:11 11° SSW visible
29 Oct 3.2 18:42:11 10° SSW 18:43:57 12° S 18:45:43 10° SSE visible
29 Oct 3.4 20:22:29 10° SW 20:23:18 12° SSW 20:23:18 12° SSW visible
30 Oct 3.2 18:34:27 10° SSW 18:36:29 13° S 18:38:32 10° SE visible
30 Oct 3.4 20:15:15 10° SW 20:16:25 12° SSW 20:16:25 12° SSW visible
31 Oct 3.2 18:26:51 10° SSW 18:29:01 14° S 18:31:12 10° SE visible
31 Oct 3.4 20:08:12 10° SSW 20:09:34 12° SSW 20:09:34 12° SSW visible
01 Nov 3.3 18:19:21 10° SSW 18:21:33 14° S 18:23:46 10° SSE visible
01 Nov 3.5 20:01:46 10° SSW 20:02:09 10° SSW 20:02:33 10° S visible
